ECMWFNIL_700_spd_057.txt.gz
Wind_Speed
20 20 17 15 13 12 10 8 7 4 2 4 7 9 7 2 3 4 4 5 5 6 7 8 8 9 8 8 8 8 7 6 5 5 5 5 4 4 4 4 5 5
19 20 19 17 15 13 11 10 8 5 2 4 7 7 5 2 5 6 6 6 7 7 8 9 10 10 9 10 10 9 9 8 8 7 7 6 6 6 5 5 4 4
20 20 20 18 16 14 13 11 8 4 2 4 5 5 5 4 6 7 7 8 8 8 9 10 10 10 11 11 11 10 10 10 10 10 9 9 8 9 8 8 6 5
21 19 18 19 18 16 14 11 8 3 1 3 4 4 5 5 6 7 8 9 8 8 8 9 10 10 10 11 11 11 11 11 11 11 10 9 9 9 10 10 9 8
21 18 18 19 19 17 14 12 8 3 1 2 3 4 5 6 5 6 7 8 8 8 8 8 8 8 8 9 9 9 9 9 9 9 9 8 9 9 9 9 9 9
23 20 19 20 19 18 16 13 7 3 2 1 1 2 3 6 5 5 6 7 8 7 6 6 6 5 5 6 6 6 7 7 6 6 6 5 5 6 6 7 6 7
24 21 21 21 21 20 17 13 8 5 4 3 2 1 1 4 5 4 6 6 6 6 6 5 3 3 3 2 2 3 3 3 3 3 3 3 3 3 4 4 3 3
25 23 23 23 22 21 16 11 8 6 6 5 4 4 2 1 3 4 5 5 5 5 5 4 2 1 1 1 2 2 2 2 3 3 3 3 3 3 4 4 4 3
27 27 27 25 23 20 16 15 14 11 8 7 7 6 4 2 1 2 4 5 5 5 5 5 4 4 4 4 5 6 6 7 6 6 6 5 4 3 3 4 4 5
30 29 28 29 27 24 22 20 19 15 11 10 10 8 7 5 4 4 4 5 6 7 7 6 6 7 7 8 9 9 8 8 7 8 9 9 8 7 6 6 5 6
23 24 25 26 25 25 24 21 17 14 13 12 12 10 9 8 7 7 7 8 9 8 7 7 8 9 10 12 11 9 7 7 7 8 9 10 10 9 8 8 8 9
13 15 16 16 16 16 16 16 15 14 14 14 14 13 13 11 10 10 11 11 11 9 8 9 9 10 10 11 11 9 7 7 7 8 9 10 11 10 9 9 10 10
10 11 11 11 12 13 14 15 15 14 14 15 15 15 15 14 13 13 14 13 11 10 9 9 10 9 9 10 9 8 7 7 8 9 10 11 11 11 10 9 10 11
11 12 14 15 14 13 15 17 16 13 12 12 14 15 15 14 13 14 14 13 12 11 11 10 9 9 10 11 10 9 8 8 8 10 11 11 11 11 10 9 10 11
12 12 14 15 13 12 15 16 15 13 12 12 13 14 14 14 13 13 13 12 12 12 12 12 11 10 11 12 11 11 11 11 11 12 13 14 13 12 12 11 10 10
10 10 11 11 10 11 12 12 13 13 12 12 12 12 12 13 12 13 13 12 12 12 12 12 12 12 12 13 13 13 12 13 14 14 15 15 14 12 12 11 10 10
9 11 12 10 9 9 10 9 11 13 13 13 12 11 12 12 11 11 13 14 14 14 14 14 14 13 14 15 16 15 14 13 14 15 15 14 13 12 11 10 10 10
9 9 11 11 10 9 9 10 13 15 15 14 14 13 13 12 11 11 13 14 15 16 15 15 16 16 16 17 17 17 16 15 16 16 15 13 12 11 11 11 11 11
9 10 11 12 11 9 9 9 11 13 12 12 13 14 14 13 12 12 13 14 14 14 14 15 16 16 17 16 16 17 16 15 15 15 14 13 13 12 12 13 13 13
9 11 13 12 10 8 7 7 8 8 9 10 11 13 14 14 13 13 14 14 13 12 11 12 12 13 13 13 14 16 16 15 15 15 14 14 14 13 14 14 13 13
8 10 11 11 10 8 8 8 8 8 8 9 10 12 13 13 13 14 15 14 13 11 11 11 11 11 12 12 13 13 14 15 16 16 16 15 14 14 15 15 15 14
6 5 6 8 8 8 7 7 7 8 8 8 9 10 11 12 13 14 14 13 12 12 11 11 11 11 11 11 11 12 13 15 17 18 17 16 15 15 16 16 16 15
8 6 6 6 6 6 6 6 7 8 9 9 10 10 11 12 13 13 13 13 13 12 12 11 11 10 10 10 10 11 14 16 19 19 18 18 17 17 17 18 18 17
12 11 9 7 6 6 7 7 8 8 9 9 10 12 13 14 14 14 13 12 12 12 12 11 11 11 12 12 13 14 16 18 20 20 20 19 19 19 20 20 20 19
11 10 9 8 8 8 8 9 10 11 11 11 12 13 13 15 16 16 15 14 14 13 13 13 13 13 13 15 16 17 18 19 21 22 21 21 21 22 23 23 22 21
9 9 9 10 10 11 12 12 14 15 16 16 16 15 15 17 18 19 18 17 16 15 14 15 15 15 15 15 17 18 20 21 23 23 23 24 25 25 25 25 24 23

ECMWFNIL_700_spd_060.txt.gz
Wind_Speed
15 15 16 16 17 16 15 13 12 9 6 2 2 3 1 2 3 5 5 6 7 7 7 8 8 8 8 8 8 8 7 7 7 7 7 7 6 6 5 6 6 6
16 15 15 16 17 17 16 14 11 8 4 1 2 3 3 4 6 7 8 9 9 9 10 10 10 10 10 10 10 10 9 9 8 7 7 6 6 6 5 6 6 7
18 16 15 16 17 17 16 14 11 7 4 1 2 3 5 7 8 9 10 11 11 11 12 12 12 12 12 12 11 11 11 10 9 8 8 7 6 6 6 6 6 6
20 18 16 16 18 18 16 14 11 8 5 3 4 5 6 8 9 10 12 12 12 12 12 12 12 11 12 12 12 12 11 11 10 10 9 7 7 7 7 7 6 6
21 19 18 18 19 19 17 14 11 9 7 6 6 7 7 8 9 11 12 13 12 12 11 11 11 10 10 10 10 10 10 10 9 9 9 8 8 8 7 7 6 6
23 21 19 19 20 20 18 15 12 10 9 8 8 8 9 9 9 10 12 12 12 12 11 10 10 9 9 9 9 8 8 7 7 7 8 7 7 7 7 7 6 5
25 24 22 22 22 23 21 17 15 14 12 11 10 9 9 9 10 11 12 12 12 12 11 10 9 8 7 6 6 5 5 4 4 4 5 5 5 5 5 6 6 5
28 27 26 25 25 26 23 18 17 17 15 13 11 10 10 10 10 11 11 11 11 11 10 9 8 6 5 4 3 3 2 2 1 1 1 2 2 2 3 4 4 4
30 29 29 28 28 28 24 20 20 19 16 14 12 11 10 11 11 11 10 10 9 9 9 8 7 6 5 4 3 3 4 3 3 2 2 2 3 3 4 4 5 5
31 31 31 30 29 28 25 22 20 18 16 16 14 13 13 13 12 12 10 8 8 8 8 8 7 7 6 5 5 6 7 6 6 6 6 6 6 7 7 7 7 7
32 33 32 30 29 28 25 21 19 19 18 18 16 15 15 14 13 11 9 8 8 8 8 7 7 7 6 7 8 8 9 8 7 7 7 7 8 9 9 9 9 10
27 29 29 28 27 27 26 23 23 22 19 18 17 16 16 15 13 11 10 9 9 9 9 8 7 7 8 9 10 10 9 9 9 9 8 8 8 9 9 10 10 11
18 20 22 23 25 28 29 29 28 26 21 18 19 18 17 17 14 12 11 11 11 11 10 10 9 8 9 9 10 11 11 11 11 10 10 10 9 10 10 11 11 12
13 16 17 19 23 26 28 28 26 24 20 19 19 18 18 17 15 14 13 13 13 13 13 12 11 10 10 9 10 10 11 11 11 11 11 11 10 11 11 12 12 12
12 14 16 18 20 23 24 22 18 18 19 19 19 19 19 18 17 16 15 15 15 16 15 15 14 13 11 10 11 11 12 12 12 12 13 13 12 13 13 14 14 14
11 13 15 17 18 20 21 20 19 19 19 19 18 18 19 19 18 18 17 17 17 17 17 17 15 14 13 12 13 13 14 14 13 13 14 15 15 16 16 16 17 17
12 13 15 15 17 19 19 19 21 20 19 18 17 18 18 18 19 19 19 19 18 18 18 17 16 15 15 14 14 14 15 15 15 15 15 15 15 16 16 17 18 18
12 13 14 15 16 18 17 18 20 20 19 18 17 17 17 16 16 16 17 17 17 17 18 18 18 17 16 16 15 15 16 17 17 16 16 15 16 16 15 16 17 17
13 14 15 16 18 18 17 17 18 18 19 19 18 18 17 16 15 15 15 15 16 17 17 18 18 18 18 18 17 17 18 18 18 17 16 16 16 15 15 15 16 17
14 15 17 18 18 17 16 16 16 17 19 19 20 20 19 18 17 16 16 16 16 16 17 17 17 17 17 17 16 16 17 18 18 17 16 14 14 14 14 15 15 16
15 16 18 19 19 18 17 17 16 16 18 19 19 20 19 19 19 18 17 17 16 16 16 16 16 16 16 15 15 15 16 17 17 15 13 11 12 13 15 16 16 16
15 16 17 18 19 19 18 18 17 16 16 17 17 17 17 17 17 17 17 17 16 16 16 16 16 16 15 15 15 15 16 16 15 13 10 10 11 14 16 17 17 18
17 18 19 18 19 18 18 17 17 17 17 17 16 16 16 16 16 16 16 16 16 16 16 16 16 15 15 15 15 15 15 15 14 12 11 11 13 15 17 18 19 20
17 19 18 19 20 21 21 20 21 21 20 19 18 17 16 16 16 16 16 17 17 17 17 16 16 16 15 15 15 15 15 15 14 13 13 14 15 17 18 20 21 22
16 17 18 19 21 22 23 22 22 22 21 20 19 18 18 18 18 18 18 18 19 19 19 18 18 17 16 16 16 16 16 16 16 16 16 17 18 19 20 22 23 23
16 17 18 18 19 21 21 20 20 19 20 20 20 19 20 20 19 19 20 20 21 20 20 20 20 19 18 17 17 17 18 19 19 19 19 19 20 21 22 23 24 24

ECMWFNIL_700_spd_063.txt.gz
Wind_Speed
20 20 21 21 21 20 18 16 14 11 9 8 7 4 2 2 3 5 6 7 7 6 5 3 2 2 3 4 4 5 4 4 5 5 5 6 6 7 7 7 7 7
19 20 21 21 22 20 18 16 14 12 10 8 7 5 3 3 5 6 7 8 7 6 5 5 4 4 4 5 5 5 5 4 4 4 4 4 4 5 5 5 6 6
19 19 19 20 21 20 18 17 15 12 10 9 8 6 4 5 6 8 8 8 8 7 7 7 7 6 6 6 6 5 5 5 5 5 4 4 4 4 4 4 4 5
18 18 19 20 21 20 18 17 15 14 14 13 12 10 7 6 8 9 9 9 9 9 9 9 8 8 7 6 6 5 5 5 5 5 4 4 3 3 3 4 4 3
19 19 19 19 20 20 19 18 16 15 15 12 11 10 8 7 9 10 11 11 11 11 11 10 9 9 8 7 6 5 5 5 5 4 5 4 3 3 3 3 3 2
21 21 20 18 19 21 21 19 18 16 14 12 12 11 8 7 10 12 13 13 12 12 11 10 9 8 7 6 5 5 5 5 4 3 4 3 2 2 2 2 3 3
23 23 22 20 21 24 23 21 19 16 15 14 14 11 9 9 11 13 14 14 13 13 11 10 8 7 7 6 5 5 4 3 3 2 2 2 1 1 1 0 0 1
24 25 23 22 23 26 25 23 20 19 17 15 14 12 10 11 13 14 15 15 14 12 11 9 8 7 6 5 4 4 3 2 1 1 1 1 0 1 2 2 2 2
25 26 25 24 25 27 26 24 24 23 19 17 16 13 12 13 14 14 14 13 12 11 10 8 7 6 4 3 2 2 2 2 2 2 2 2 2 3 4 4 4 5
26 27 26 27 27 28 28 27 28 26 21 20 18 14 14 15 14 13 13 11 10 9 8 7 6 4 3 3 3 3 4 5 5 5 5 6 6 7 7 8 8 8
28 28 28 30 30 30 32 32 30 27 24 23 20 15 15 16 14 13 13 11 10 9 7 7 6 6 6 6 6 7 7 8 8 8 8 9 10 10 11 11 11 11
30 30 30 32 34 35 38 39 35 30 28 27 22 17 16 17 15 15 13 11 10 9 7 8 7 8 8 8 9 9 10 11 11 10 10 10 11 12 13 13 13 13
30 31 32 34 36 38 40 40 36 31 28 28 25 20 17 17 17 16 14 11 10 9 9 9 9 9 9 10 11 11 12 14 14 13 13 12 12 12 13 14 14 14
27 27 28 28 29 32 33 33 30 27 26 28 26 20 17 17 20 18 16 14 12 11 11 11 11 11 11 12 12 12 13 14 14 14 14 13 12 12 12 13 14 15
18 16 16 17 18 22 25 25 24 24 26 27 26 22 20 20 21 19 16 16 15 14 14 13 13 13 13 14 14 14 13 14 14 14 14 13 13 12 12 13 14 15
12 13 14 14 14 16 19 21 24 25 26 26 26 26 24 21 21 18 16 17 16 15 15 15 15 16 16 17 16 16 15 15 15 16 15 15 14 14 15 16 17 18
12 13 14 14 15 16 18 22 25 27 27 27 27 26 22 20 19 18 18 19 18 18 18 17 18 18 19 19 19 18 18 17 17 18 17 17 17 17 17 18 20 20
14 13 14 16 18 20 22 24 26 27 27 27 26 25 23 21 20 20 21 22 21 21 21 21 21 21 21 21 21 21 20 19 19 19 20 20 20 20 20 21 21 22
16 17 17 19 22 23 25 26 27 27 27 26 25 25 24 23 22 23 23 23 24 24 24 24 23 23 23 22 22 22 22 21 21 21 22 22 22 22 22 22 22 22
17 18 19 21 23 25 27 28 29 29 28 27 26 26 25 25 25 25 25 24 24 25 25 25 25 24 24 24 24 24 24 24 24 24 24 24 24 23 22 22 21 21
17 18 19 20 22 23 25 28 29 29 28 28 28 29 29 27 26 25 25 24 26 26 25 25 25 24 24 25 25 25 25 25 25 24 24 23 22 22 21 20 19 19
16 16 18 19 21 21 22 24 26 26 26 27 28 29 30 27 25 25 25 27 28 27 23 22 22 23 23 23 24 24 25 25 24 23 21 21 21 20 19 18 18 17
16 16 17 19 20 21 21 22 23 22 22 23 24 25 26 24 22 23 26 27 26 22 20 20 21 22 22 23 23 24 24 24 23 22 21 20 20 20 19 18 17 18
17 17 17 18 20 21 22 22 21 20 20 21 22 23 25 23 21 21 23 23 21 20 20 22 22 22 22 23 23 23 23 23 22 22 21 20 20 20 20 18 18 19
16 16 17 19 20 22 22 22 21 21 21 22 22 24 25 24 22 22 22 22 21 20 20 21 21 21 22 22 23 23 23 23 23 22 21 20 21 21 21 20 19 20
15 15 16 17 18 19 19 20 21 22 22 23 23 24 25 25 25 24 24 24 24 23 22 22 22 22 23 23 24 24 25 25 25 24 23 22 22 22 22 22 21 21

ECMWFNIL_700_spd_069.txt.gz
Wind_Speed
20 19 19 19 17 14 14 13 11 9 7 5 4 3 3 4 5 7 9 9 8 7 5 4 2 0 1 2 2 3 4 4 4 5 6 7 8 10 10 9 9 9
20 19 19 18 16 14 12 11 11 10 7 6 6 5 5 6 6 7 8 9 9 8 7 5 3 1 0 2 3 4 4 5 5 5 5 5 6 8 8 9 9 8
21 20 19 18 17 15 12 11 12 12 10 9 9 8 7 7 8 8 9 9 10 9 7 6 4 2 0 2 4 5 5 6 6 6 6 6 7 7 8 9 9 8
21 20 20 19 18 17 15 14 14 14 13 12 12 10 9 8 9 10 10 9 9 8 6 6 5 2 2 4 5 6 6 7 7 7 7 7 7 7 7 8 8 8
21 21 20 20 19 19 19 17 16 15 14 14 13 11 10 10 10 10 8 8 8 7 5 5 4 2 4 5 6 7 7 8 7 7 6 6 6 6 6 6 7 7
22 21 21 20 19 20 20 20 19 17 17 16 14 13 11 10 10 9 7 7 7 6 5 4 4 4 5 6 8 9 9 9 9 8 8 7 6 6 5 6 7 8
21 20 19 19 19 20 21 21 21 20 20 18 16 14 13 11 9 8 7 8 6 4 4 4 5 6 7 8 9 11 11 11 11 10 9 9 8 8 7 7 7 8
20 20 19 19 20 21 21 22 22 22 21 19 17 15 13 11 9 8 7 7 6 4 4 5 6 7 8 9 10 11 11 11 11 10 10 9 8 8 9 9 8 8
22 22 21 21 21 21 22 23 24 24 22 20 18 16 14 12 10 9 8 6 6 5 6 7 7 8 8 8 9 9 9 9 9 9 8 8 7 6 6 7 8 8
24 23 23 22 21 21 21 23 24 24 23 21 19 17 15 13 11 11 9 6 6 6 7 8 8 8 8 8 8 7 7 7 7 6 6 6 6 5 5 4 4 5
25 24 24 24 22 21 21 22 23 23 22 21 19 18 16 15 13 12 8 7 6 8 8 8 9 8 8 8 8 7 7 6 6 5 5 5 5 5 5 5 4 4
27 26 26 25 24 22 22 23 23 24 23 21 20 19 18 17 15 12 8 6 7 10 9 9 9 8 8 8 8 7 7 6 5 5 5 5 5 5 5 5 5 5
29 30 30 29 27 25 24 24 24 25 25 23 22 21 21 19 17 16 13 10 9 12 11 10 10 9 9 8 8 8 7 7 6 5 5 6 6 7 7 6 6 6
30 31 30 28 27 25 25 25 26 27 27 25 24 23 23 21 19 18 16 12 12 14 12 12 11 10 10 9 8 8 8 8 7 7 7 7 7 8 8 8 8 8
29 31 28 24 25 27 27 27 28 29 29 27 27 26 26 24 23 21 15 11 14 17 14 13 12 11 11 11 10 10 9 9 9 9 8 8 8 9 9 9 9 9
29 30 29 26 26 27 28 29 30 31 31 28 28 29 29 28 27 23 15 13 18 20 18 17 15 13 13 13 12 12 12 12 12 11 11 10 9 9 10 10 10 10
30 30 28 28 27 27 28 28 27 29 32 32 32 34 34 32 29 25 19 16 20 21 20 19 18 17 16 15 14 15 14 15 15 14 14 13 12 12 12 12 12 12
24 22 19 18 19 20 22 22 21 22 27 31 35 38 38 32 26 24 22 20 21 21 20 19 20 20 19 18 17 17 17 17 18 17 17 16 15 15 15 15 14 14
17 16 15 13 12 13 15 17 17 18 21 25 29 33 35 32 28 27 25 22 23 23 21 20 21 23 22 20 19 19 19 20 21 20 20 19 18 17 17 17 16 16
12 12 14 15 14 13 14 15 16 18 20 24 26 28 30 32 31 30 27 25 27 27 24 22 23 25 25 23 22 22 22 23 23 23 22 22 20 19 19 19 19 19
8 8 10 14 16 15 15 15 16 16 18 21 24 25 26 28 28 28 27 28 30 30 27 25 26 27 27 26 25 25 25 25 24 24 24 24 23 22 21 21 21 21
8 8 10 13 15 15 16 17 16 15 16 18 21 23 24 25 25 25 27 29 29 29 27 26 27 28 29 28 28 28 27 26 25 25 25 24 24 24 23 23 22 23
9 9 11 13 13 13 14 16 16 14 14 16 18 20 21 22 23 24 25 26 27 27 26 26 27 29 29 30 30 29 28 27 26 25 25 24 24 24 24 24 23 24
10 10 11 12 13 12 13 15 16 16 15 17 18 20 20 21 22 24 25 26 27 27 26 26 28 30 30 31 30 29 28 27 27 26 26 26 26 26 26 25 25 25
12 12 11 11 12 13 13 14 16 17 18 19 21 21 22 23 24 26 28 28 29 28 27 28 30 31 31 31 31 29 29 28 29 28 28 28 28 29 28 27 27 27
13 12 12 12 12 13 14 14 16 18 20 22 23 24 25 27 28 28 29 29 28 28 28 30 32 32 31 31 32 31 30 30 31 31 31 30 30 30 30 29 29 29

ECMWFNIL_700_spd_072.txt.gz
Wind_Speed
18 19 19 18 17 18 20 19 17 14 12 10 7 5 4 3 4 4 5 5 5 4 3 2 1 1 1 2 2 3 4 5 6 7 8 8 8 9 9 9 10 10
19 20 19 18 18 19 20 19 16 14 12 9 7 5 2 1 3 3 4 5 5 4 3 2 1 1 1 2 3 3 4 5 5 6 6 7 7 7 8 8 8 9
20 20 19 19 19 20 21 19 16 15 13 10 8 6 2 1 3 4 5 5 4 3 2 2 2 1 2 3 4 4 5 5 5 5 5 6 7 7 8 8 7 8
20 20 20 20 21 21 20 18 17 16 14 11 8 5 3 3 4 5 6 4 3 3 2 2 1 1 3 4 5 5 6 6 5 5 5 6 7 8 8 9 8 8
21 21 21 22 23 22 20 18 16 14 12 10 9 7 5 5 5 6 5 4 3 2 1 2 2 3 4 5 6 6 6 6 6 6 5 6 7 7 8 8 8 8
23 22 23 24 24 23 21 19 15 12 11 11 10 9 8 6 6 6 5 4 3 1 2 3 3 4 5 6 6 7 7 7 6 6 6 6 7 7 7 7 7 7
24 23 23 24 25 24 22 20 17 15 15 14 13 12 10 8 7 6 5 5 3 1 2 4 5 6 6 7 8 8 8 7 7 7 7 7 7 7 8 8 8 8
25 24 24 24 25 24 23 21 18 18 18 18 16 14 12 9 7 6 6 5 3 1 2 4 6 8 8 9 9 9 9 8 8 8 7 7 7 7 8 8 8 8
25 24 23 23 23 23 22 21 19 19 20 19 18 16 14 11 8 7 6 6 3 1 2 5 7 9 10 10 10 10 9 9 8 8 8 7 7 7 8 8 7 8
25 24 23 22 22 21 21 20 19 20 21 21 19 18 15 12 10 8 7 6 3 1 3 6 8 9 10 11 11 10 9 9 9 8 8 8 8 8 8 8 7 8
25 24 23 21 20 19 20 20 20 21 22 23 21 19 17 13 11 9 9 8 4 2 6 8 9 10 11 11 11 10 10 10 9 9 9 8 8 8 8 8 8 8
29 26 23 22 21 19 18 20 21 22 23 24 22 21 18 15 13 12 12 10 6 5 9 11 11 11 12 12 12 12 11 11 10 10 10 10 10 9 9 9 10 10
29 25 22 21 22 20 18 19 21 23 24 25 24 23 20 17 15 15 14 11 8 8 11 12 12 12 12 12 13 12 12 11 11 11 11 11 11 11 11 11 11 11
22 21 21 21 21 21 21 21 23 23 24 25 25 24 22 19 18 18 17 15 12 11 13 14 14 14 14 13 13 12 12 12 12 12 11 11 12 12 12 12 12 11
21 22 22 22 23 24 24 24 25 25 25 26 26 24 23 21 22 21 20 18 15 13 15 16 16 16 15 15 14 14 13 13 12 12 11 11 11 11 12 12 12 12
21 23 23 24 25 27 27 27 28 27 26 26 26 25 24 23 24 24 22 20 16 14 16 18 17 16 16 16 15 15 13 13 12 12 12 12 11 11 11 12 12 13
23 24 25 27 28 28 28 29 29 30 30 29 26 25 25 25 26 26 23 20 17 15 17 19 18 17 16 16 16 15 15 14 13 13 12 12 12 12 12 12 13 13
26 24 22 24 26 25 25 27 30 31 31 31 28 26 26 27 29 29 26 23 21 19 18 19 20 18 17 17 17 17 16 15 15 14 14 14 14 14 14 14 14 15
26 25 23 21 19 19 19 20 25 29 28 27 29 32 32 31 31 33 32 30 28 25 21 20 21 20 19 19 19 19 18 18 18 17 17 17 16 16 17 17 17 17
20 20 20 16 13 14 15 13 15 20 22 21 23 29 33 34 34 34 35 35 33 30 24 22 23 22 21 21 20 20 21 21 21 21 21 20 19 19 18 18 19 19
13 12 12 13 14 14 14 13 11 13 15 16 16 18 24 31 35 35 35 34 32 29 25 24 24 23 23 22 21 22 23 24 24 24 23 23 22 22 21 21 21 21
10 9 8 11 14 16 15 14 13 11 11 13 14 15 18 26 34 36 36 35 33 31 29 27 25 25 26 25 24 23 24 26 27 26 26 26 25 25 25 24 24 24
8 8 7 9 13 16 15 14 14 13 12 13 15 16 17 22 28 32 33 33 32 32 31 30 28 27 28 28 28 27 27 28 29 29 28 28 28 28 28 26 26 27
7 7 7 8 11 13 13 13 14 15 14 15 15 16 17 19 23 25 26 27 27 27 28 28 27 27 28 30 30 29 28 28 29 30 30 29 29 30 30 29 28 28
8 8 8 9 10 12 12 11 12 13 14 13 13 14 15 16 19 21 22 25 26 25 26 27 27 27 29 30 30 29 28 28 29 30 30 31 31 32 31 31 30 29
9 9 9 10 11 12 12 12 12 13 13 13 12 13 14 16 18 21 22 23 24 24 26 27 27 28 30 31 30 29 28 28 29 31 32 33 34 34 34 33 31 30

ECMWFNIL_700_spd_075.txt.gz
Wind_Speed
18 20 19 17 16 16 17 18 19 18 16 14 12 10 8 6 5 4 4 4 4 4 4 4 4 4 4 4 4 4 5 6 7 7 9 10 10 10 10 10 10 11
19 20 18 17 17 18 19 21 21 19 17 14 12 10 7 5 3 3 2 2 2 3 3 4 5 5 4 4 4 5 7 8 7 8 9 10 10 10 9 10 10 10
20 20 18 18 18 18 21 23 22 20 17 14 12 10 7 5 3 2 1 0 0 1 3 4 5 5 5 5 5 6 6 6 7 7 8 10 11 10 9 9 9 10
18 16 17 19 19 20 23 24 22 20 17 14 12 10 8 7 4 2 1 1 1 1 3 4 6 6 6 6 6 6 6 5 6 6 7 8 10 10 9 7 7 9
16 16 18 20 20 21 23 24 23 20 17 14 14 12 9 7 4 2 1 1 1 1 3 5 6 7 7 7 6 6 6 6 5 5 5 6 8 9 9 6 6 7
19 19 19 19 19 20 24 25 24 21 18 16 15 12 11 9 7 4 2 1 1 1 3 6 7 7 7 7 7 6 6 6 5 5 5 6 7 8 8 6 5 6
22 21 20 20 20 21 24 26 24 21 19 17 14 12 12 11 8 5 3 2 1 1 3 6 7 7 7 7 7 7 6 6 6 6 6 6 7 8 8 7 6 6
24 23 22 22 22 23 25 26 25 22 20 17 14 13 13 11 8 6 5 3 1 1 3 5 6 7 8 8 8 8 7 7 7 6 6 6 7 7 8 8 8 7
26 25 24 23 22 22 25 26 25 23 21 18 16 15 14 12 9 8 6 4 3 2 2 5 7 7 8 9 8 8 8 7 7 6 6 6 6 7 8 8 9 8
25 25 24 22 20 21 24 25 25 24 22 19 18 17 15 13 12 10 8 7 5 4 3 5 7 8 9 9 9 9 8 7 7 7 6 7 6 7 7 8 9 9
23 22 21 20 20 20 22 24 25 26 23 20 19 17 16 15 13 12 10 9 8 6 4 5 8 9 9 9 9 9 8 8 8 8 7 7 7 7 7 7 8 9
20 18 17 19 20 20 21 21 22 23 22 20 20 19 17 17 15 14 13 12 11 8 6 7 9 10 10 10 10 10 9 9 9 9 8 8 8 8 8 8 8 9
18 18 19 20 20 19 19 19 19 20 20 20 20 20 19 18 16 15 15 15 13 10 9 10 11 12 12 12 12 11 11 11 10 9 9 9 9 9 9 9 10 10
19 19 20 21 20 19 19 18 19 19 19 19 20 20 20 19 18 17 17 16 14 13 12 12 13 13 13 14 14 13 12 11 11 10 10 9 10 10 10 10 11 11
20 20 20 21 21 21 21 20 20 19 19 19 21 21 21 20 19 18 19 19 17 15 14 14 15 16 16 16 16 14 14 13 12 11 11 11 11 11 11 11 11 12
22 22 22 22 21 22 23 23 23 22 21 21 21 21 21 21 20 19 21 20 18 17 16 17 18 18 18 18 17 16 15 14 13 13 12 12 12 12 12 12 12 14
24 23 23 23 23 25 25 25 25 25 25 24 24 23 21 20 20 21 23 23 21 19 18 19 19 18 19 20 19 18 17 16 15 15 15 15 14 14 14 14 14 15
26 24 24 25 25 26 26 26 26 26 27 28 27 27 26 23 21 21 24 25 24 23 22 22 21 19 20 21 20 19 18 17 16 17 17 17 17 17 17 17 16 16
24 24 26 26 26 27 28 27 27 28 29 30 29 29 29 27 23 22 24 26 26 25 24 23 22 20 20 20 19 18 18 17 18 18 18 19 19 19 19 18 18 18
18 19 21 21 23 26 27 25 24 25 27 29 28 28 29 28 27 26 27 29 28 27 26 25 24 23 22 20 19 19 19 18 19 19 19 20 21 22 21 20 20 19
15 15 15 16 19 21 20 18 17 18 21 23 22 24 26 27 29 31 33 34 33 32 30 29 28 28 26 24 22 20 21 21 20 20 20 21 23 25 23 21 21 21
12 13 13 14 16 16 15 14 13 15 17 17 14 16 19 19 22 28 33 36 36 34 33 32 32 32 31 29 25 23 23 23 22 21 21 21 24 26 24 22 22 24
7 8 11 13 12 12 14 14 14 15 16 13 9 10 12 12 14 19 27 33 35 35 33 32 31 31 28 25 24 24 24 23 23 23 23 23 25 26 25 26 26 27
6 7 9 9 9 11 14 15 16 16 15 13 11 10 11 12 12 14 18 24 29 33 33 31 30 29 26 25 26 27 26 25 25 26 26 26 26 27 28 28 28 28
6 7 7 7 7 9 12 14 14 12 11 12 12 12 12 12 12 13 14 18 24 27 28 28 28 27 27 27 28 29 28 27 27 28 29 28 26 26 28 29 29 29
7 7 7 7 7 8 10 11 11 10 10 12 12 12 12 12 11 12 13 17 21 22 23 24 24 24 25 25 25 26 26 26 27 28 30 29 27 27 29 29 29 29

ECMWFNIL_700_spd_078.txt.gz
Wind_Speed
12 14 16 16 16 16 17 18 19 19 18 18 17 16 15 14 11 10 9 8 8 8 7 7 7 6 5 6 5 6 6 7 7 6 7 10 10 9 8 8 8 7
13 16 18 18 17 18 19 20 20 20 20 19 18 17 16 14 12 10 8 7 6 6 6 6 6 5 5 5 4 5 6 6 6 6 6 9 10 9 8 7 7 7
13 17 18 18 18 20 21 22 22 22 21 20 18 17 14 13 11 9 7 6 5 4 4 5 5 5 5 5 4 4 5 5 6 6 7 8 10 10 9 8 7 7
13 17 19 19 19 21 23 24 24 22 21 19 17 16 14 12 10 8 6 5 4 3 4 4 5 5 6 5 5 4 5 4 5 6 6 7 9 9 9 8 8 7
16 19 21 20 21 22 23 24 24 22 20 19 17 15 13 11 8 6 4 4 4 4 4 5 6 6 6 6 6 5 5 4 4 4 4 6 8 9 9 8 7 7
19 22 24 23 23 22 22 24 24 23 21 19 17 15 12 10 8 6 4 3 4 4 5 5 6 7 7 7 7 6 5 4 4 3 3 4 6 8 9 8 7 7
23 25 26 24 23 22 22 24 25 24 21 19 18 15 13 10 8 6 5 3 2 2 3 5 6 7 8 8 7 6 5 5 4 3 3 4 5 8 10 9 7 7
21 24 25 23 22 20 21 25 27 25 22 20 19 16 13 11 9 8 6 4 2 1 1 2 5 7 8 8 8 7 6 5 4 3 3 3 5 7 9 8 8 6
17 19 21 22 22 20 21 26 28 25 23 21 18 16 14 12 11 10 8 6 3 1 0 1 3 6 7 7 8 7 7 6 5 4 3 3 4 6 7 8 7 6
16 19 21 21 22 21 22 26 27 25 23 21 19 16 14 13 13 12 10 8 6 3 2 1 1 4 6 7 7 7 6 6 5 5 5 5 4 4 6 7 7 6
15 20 22 22 22 21 22 25 27 26 25 23 21 18 16 15 15 14 11 9 7 6 5 3 2 3 5 7 7 6 6 6 6 6 5 4 4 4 5 6 7 7
14 18 19 20 22 21 21 24 27 28 26 25 23 20 18 17 16 14 12 10 9 7 6 5 4 3 5 7 7 7 7 7 7 6 5 5 5 4 4 5 6 6
15 17 18 19 21 21 21 24 27 28 27 27 25 22 19 19 18 15 13 11 10 9 8 7 6 5 5 7 8 8 9 9 8 7 6 5 5 4 4 4 5 5
17 18 19 20 20 20 21 22 25 27 28 28 27 24 21 20 19 16 15 14 13 11 10 9 8 7 7 8 9 10 10 10 9 8 7 7 6 6 6 6 7 7
17 18 20 21 21 21 21 21 22 24 25 25 26 24 22 21 20 18 16 16 14 13 13 12 12 11 10 10 10 11 11 11 10 9 9 9 8 8 9 9 9 10
18 20 22 23 22 22 22 22 22 23 23 23 23 21 20 21 20 18 18 18 17 17 17 16 15 14 12 12 12 12 12 11 11 11 11 10 10 10 11 11 12 12
19 21 22 23 23 23 23 22 22 22 21 20 19 18 18 20 19 19 21 21 20 20 19 17 17 16 15 14 13 12 13 12 11 11 12 12 12 12 12 13 14 15
21 21 21 21 22 21 21 21 21 21 20 19 18 17 18 19 19 20 20 20 21 21 19 17 18 17 16 15 15 15 15 15 14 13 13 14 14 14 15 15 15 16
22 23 22 21 20 20 20 20 20 20 21 21 20 20 20 20 20 20 19 19 20 21 19 19 20 19 17 17 18 17 16 16 15 15 15 15 15 16 17 17 16 17
23 23 23 21 20 20 21 20 21 22 23 23 22 22 21 22 23 23 22 21 20 20 21 21 22 22 20 20 19 18 16 15 14 15 16 16 17 17 17 17 17 17
19 19 20 20 20 20 20 20 22 24 25 25 24 21 21 22 23 25 27 27 25 23 23 24 24 25 25 23 21 20 18 17 16 17 17 18 18 19 19 19 19 19
14 16 17 19 19 20 20 21 22 23 24 24 20 17 18 19 21 23 25 27 27 27 27 27 28 28 28 26 24 23 23 22 22 22 23 22 20 21 22 22 23 22
11 12 13 14 15 15 17 18 17 16 19 19 15 12 13 14 15 16 16 17 21 25 27 30 30 29 28 27 26 26 26 27 27 26 24 22 22 22 24 25 26 26
8 9 10 12 13 13 14 14 12 13 15 14 12 11 11 10 9 9 8 7 11 17 22 27 29 29 29 28 28 27 27 28 27 24 20 20 22 24 26 27 27 27
9 9 9 10 10 11 12 12 12 13 13 12 12 12 11 10 7 5 5 4 6 9 15 22 27 29 30 29 28 27 26 26 25 23 22 23 25 27 28 29 30 29
7 7 7 6 7 8 10 10 11 12 11 11 11 12 13 13 10 6 5 4 4 6 10 15 19 22 24 25 25 25 24 23 22 22 22 23 24 26 29 31 31 30

ECMWFNIL_700_spd_084.txt.gz
Wind_Speed
8 8 10 13 15 18 20 20 21 22 22 21 20 18 17 16 15 16 15 14 13 13 13 11 11 11 10 10 10 11 11 11 11 11 11 12 12 12 13 13 12 12
10 11 12 15 18 20 22 22 21 22 22 21 21 19 17 16 16 15 14 12 12 12 11 11 11 10 10 10 10 11 11 11 11 10 10 11 11 12 13 13 13 13
12 14 15 17 21 23 25 26 24 23 23 22 22 20 18 16 16 15 13 13 13 13 12 11 10 9 9 9 9 9 10 10 10 10 10 10 10 11 13 13 14 14
14 15 16 17 20 22 24 26 26 26 25 23 22 20 18 17 16 15 15 14 14 13 11 10 9 9 10 11 10 9 9 10 10 9 9 10 10 10 12 13 13 13
14 14 15 17 19 22 22 23 26 28 26 23 21 19 17 17 17 16 15 14 13 11 10 9 8 9 10 11 10 9 9 9 9 9 10 10 10 10 12 12 12 12
13 13 15 17 19 21 21 21 25 28 27 23 20 19 19 18 17 16 15 13 12 10 9 9 8 7 8 9 8 8 9 9 9 10 11 11 11 11 12 12 12 12
14 14 14 16 19 21 20 21 25 26 24 22 22 21 21 20 18 16 14 13 11 9 9 8 8 8 8 8 7 7 8 8 9 10 10 10 10 11 11 11 12 12
14 16 16 17 18 20 20 21 24 23 22 23 24 23 22 21 18 16 14 12 11 9 9 9 9 9 8 7 6 7 8 8 8 8 8 9 9 10 11 11 11 11
15 17 19 19 19 20 20 22 23 23 23 25 26 25 23 21 19 17 15 12 10 10 10 9 9 8 7 7 7 7 7 6 6 7 7 8 9 10 10 10 10 10
15 19 21 20 20 20 21 23 24 24 26 28 27 26 24 21 19 17 15 13 11 10 9 8 7 7 6 7 7 7 6 6 7 7 7 8 10 11 11 10 10 9
18 20 22 21 21 22 24 25 25 25 27 29 27 26 24 21 19 17 15 13 11 10 8 7 6 6 6 7 7 7 8 8 8 7 8 8 9 11 12 11 11 11
21 22 23 23 22 24 26 28 27 25 26 28 27 26 25 22 20 18 15 14 12 10 9 8 7 7 7 7 7 8 9 8 7 8 9 9 9 10 12 13 13 13
22 22 23 24 25 25 24 25 26 25 26 28 28 27 25 23 20 18 17 15 13 12 11 9 9 8 7 8 9 10 9 8 8 9 10 11 10 11 13 14 14 13
20 20 19 22 25 24 21 23 24 23 25 27 28 27 26 24 22 21 19 16 15 14 12 10 10 9 8 9 10 11 10 9 10 10 11 11 11 12 13 13 13 13
19 18 18 19 21 21 22 25 25 23 23 25 26 27 27 26 24 22 20 18 16 15 13 12 11 11 10 10 11 12 11 11 12 11 11 12 12 12 13 12 12 11
21 20 20 20 20 21 23 25 25 23 21 22 26 28 29 28 26 23 21 20 18 15 14 13 13 13 12 12 13 13 13 14 13 12 12 12 12 12 11 11 12 12
24 22 22 22 21 21 21 23 24 24 21 21 26 29 30 29 26 24 22 20 18 17 16 15 14 14 14 14 15 15 15 15 14 14 13 13 12 11 11 11 11 11
24 23 21 21 21 21 22 22 24 24 22 22 26 29 29 28 26 24 22 21 20 19 18 17 17 17 17 17 17 17 17 16 16 15 14 13 12 12 12 12 11 11
23 24 21 20 22 23 24 24 25 25 23 22 24 27 27 26 24 24 23 22 22 21 20 19 19 19 19 19 19 19 19 19 18 17 15 14 13 13 14 14 13 12
18 22 21 20 21 22 22 23 25 26 25 23 24 25 25 24 23 24 23 23 22 21 21 20 20 21 22 22 22 21 21 21 21 19 18 17 16 15 15 14 13 13
12 19 21 21 20 20 23 24 26 28 27 26 25 23 23 23 23 22 22 22 22 21 20 20 21 22 23 24 25 24 23 24 23 21 20 20 18 15 12 13 14 15
11 15 19 21 20 20 23 24 25 27 27 26 26 24 22 22 21 21 22 21 21 20 20 22 23 23 24 25 25 25 24 25 25 24 22 21 19 17 15 15 17 18
13 14 15 18 20 20 22 21 22 27 27 25 26 25 24 22 21 21 21 20 20 21 21 23 24 24 24 24 24 25 26 26 26 26 26 23 21 21 20 20 21 21
13 13 13 15 17 19 21 20 21 24 25 23 24 25 24 23 22 23 24 25 26 27 26 26 26 26 25 25 25 25 27 27 27 27 27 26 25 25 25 24 24 23
8 8 8 11 14 17 21 22 21 22 21 19 22 24 23 22 24 26 27 28 27 24 22 22 23 24 24 25 25 26 28 29 28 27 27 27 27 26 26 25 24 22
3 3 2 4 8 13 18 19 19 20 19 18 19 20 19 19 19 19 20 19 17 14 13 15 19 22 25 26 27 28 29 28 27 25 25 26 26 26 26 25 23 21

ECMWFNIL_700_spd_087.txt.gz
Wind_Speed
16 15 14 14 15 16 17 18 18 18 17 16 17 18 17 17 17 17 16 14 13 13 13 12 12 13 12 12 11 11 12 13 13 13 13 14 14 14 13 14 14 14
17 16 14 15 16 16 17 19 19 19 18 17 19 20 19 18 18 17 15 13 12 12 13 13 13 13 12 12 11 11 12 12 12 12 13 14 14 14 14 14 14 14
18 17 15 15 16 16 17 19 20 20 19 19 21 20 19 18 17 16 14 13 13 13 13 14 14 14 13 12 11 11 12 12 12 12 13 13 14 14 15 14 14 14
18 18 17 15 16 18 18 19 19 20 19 20 21 20 18 17 15 14 13 13 13 13 14 14 13 13 12 12 12 11 11 11 12 12 12 12 12 13 14 14 14 14
19 19 17 16 17 19 19 20 20 20 19 20 21 21 18 16 14 14 14 14 14 14 13 12 11 10 11 12 12 10 10 10 10 10 11 11 11 11 11 13 13 13
19 19 18 18 19 20 20 21 21 20 20 21 22 22 20 17 15 15 15 14 14 13 12 11 10 10 12 12 11 9 9 10 10 10 11 11 10 10 10 10 11 11
20 19 20 20 20 19 19 21 22 21 21 21 20 21 22 20 17 16 16 15 15 14 13 11 11 11 11 11 10 9 9 9 10 10 10 9 9 9 9 9 10 10
22 21 23 23 21 19 19 22 22 21 22 21 20 21 21 18 17 17 16 16 15 14 13 12 11 11 11 11 10 9 9 9 9 9 9 9 9 9 9 10 10 10
24 23 23 23 21 18 19 20 21 21 22 22 21 23 22 18 17 18 17 16 15 13 13 12 11 11 11 10 10 9 9 9 8 8 8 8 9 9 10 10 10 10
23 21 21 22 21 18 18 19 21 22 22 22 22 23 23 21 20 19 18 16 14 13 13 11 10 10 10 9 9 9 9 9 9 9 9 9 9 9 10 10 11 11
18 17 18 21 21 20 20 21 24 23 22 22 22 23 24 23 21 19 18 16 15 13 12 10 10 9 9 9 9 9 9 10 10 10 10 10 10 10 11 12 12 12
14 15 16 18 19 21 22 23 25 25 24 24 24 25 27 25 22 20 19 17 15 13 12 11 10 10 9 9 9 9 10 11 11 11 11 10 9 9 11 12 13 12
15 15 16 17 18 20 21 21 23 25 25 26 27 28 27 25 22 21 20 18 16 14 13 12 11 10 10 9 10 11 11 10 11 11 11 10 9 9 11 12 12 11
17 17 17 17 18 19 20 22 23 24 24 24 26 27 27 25 23 22 21 19 17 15 14 13 12 11 10 9 10 10 10 10 11 11 11 10 10 10 11 11 11 11
19 18 18 17 18 20 21 21 22 24 23 23 24 25 26 25 24 23 22 19 18 17 15 14 12 11 10 10 9 8 9 10 11 11 11 11 10 10 11 11 11 11
20 20 19 18 19 21 22 21 21 24 26 27 27 25 25 25 25 24 23 21 19 18 15 14 13 12 10 10 9 8 9 10 11 11 12 11 11 11 11 12 12 12
20 20 19 20 21 21 21 21 21 24 26 28 28 26 25 26 25 25 24 23 21 18 16 15 14 12 11 11 10 9 10 11 11 12 12 12 12 13 13 13 13 13
20 20 19 19 20 18 18 20 22 24 27 28 27 26 25 26 26 25 24 23 21 19 17 16 15 14 13 12 12 12 12 13 13 13 14 14 14 15 15 15 15 14
14 18 19 19 19 18 18 19 21 24 27 28 26 25 25 25 26 27 26 24 22 20 19 18 17 16 15 15 15 15 15 15 15 15 16 16 16 16 16 16 16 16
7 10 15 18 19 20 18 18 20 24 27 28 26 23 23 26 27 28 28 26 23 22 21 20 19 19 18 18 18 18 18 19 18 18 18 17 17 17 17 17 17 17
5 6 9 13 16 16 16 19 22 24 25 26 26 23 23 26 28 28 28 27 25 24 24 23 22 20 20 20 20 20 21 22 22 20 19 19 18 18 18 18 17 19
3 5 7 11 14 14 16 20 22 21 22 26 26 25 25 26 26 27 27 26 26 26 25 24 23 23 22 22 22 22 22 23 24 22 21 20 20 20 21 19 18 19
5 6 8 10 13 15 16 17 18 19 20 26 28 27 26 26 26 27 27 26 26 27 26 25 25 25 25 26 25 25 24 25 26 24 22 22 23 22 23 23 22 21
6 7 8 9 10 14 16 14 16 18 19 22 26 26 25 26 27 26 27 26 26 25 25 26 26 25 27 27 26 25 24 24 25 25 25 26 26 24 25 27 27 26
5 5 6 8 8 9 13 12 13 18 18 19 23 24 24 25 26 27 29 29 28 27 26 26 25 25 26 27 25 24 24 24 25 27 29 29 29 28 28 29 29 28
4 4 4 6 6 4 8 9 9 12 15 17 22 23 23 23 25 26 26 26 28 29 28 27 26 27 27 26 24 24 25 25 26 29 30 29 28 28 29 30 30 30